Weather History for Imperial, NE

Change the Weather History Date:

Tuesday, January 29, 2013

  Actual Average Record
Temperature  
Mean Temperature 29 °F 29 °F  
Max Temperature 33 °F 42 °F 67 °F (1920)
Min Temperature 24 °F 16 °F -10 °F (1902)
Degree Days  
Heating Degree Days 36 36  
Month to date heating degree days 1069 1064  
Cooling Degree Days 0 0  
Month to date cooling degree days 0 0  
Year to date cooling degree days 0 0  
Moisture  
Dew Point 24 °F    
Average Humidity 81    
Maximum Humidity 92    
Minimum Humidity 69    
Precipitation  
Precipitation 0.03 in 0.02 in 0.32 in (1981)
Sea Level Pressure  
Sea Level Pressure 29.77 in    
Wind  
Wind Speed 13 mph (NNW)    
Max Wind Speed 22 mph    
Max Gust Speed 29 mph    
Visibility 7 miles    
Events Fog , Snow    
T = Trace of Precipitation, MM = Missing Value Source: NWS Daily Summary

Daily Weather History Graph

Daily Weather History Graph

Search for Another Location

Airport:

Trip Planner

Search our weather history database for the weather conditions in past years. The results will help you decide how hot, cold, wet, or windy it might be!

Date:

Astronomy

Jan. 29, 2013 Rise Set
Actual Time 6:58 AM MST 5:01 PM MST
Civil Twilight 6:29 AM MST 5:30 PM MST
Nautical Twilight 5:56 AM MST 6:03 PM MST
Astronomical Twilight 5:24 AM MST 6:35 PM MST
Moon 8:00 PM MST (1/29) 7:55 AM MST (1/29)
Length of Visible Light 11h 00m
Length of Day
10h 02m
Waning Gibbous, 93% of the Moon is Illuminated
Jan 29
Waning Gibbous
Feb 3
Last Quarter
Feb 10
New
Feb 17
First Quarter
Feb 25
Full

Hourly Weather History & Observations

Time (MST) Temp. Windchill Dew Point Humidity Pressure Visibility Wind Dir Wind Speed Gust Speed Precip Events Conditions
12:53 AM 30.0 °F 20.5 °F 27.0 °F 88% 29.75 in 10.0 mi NNW 11.5 mph - N/A   Mostly Cloudy
1:53 AM 30.0 °F 20.0 °F 27.0 °F 88% 29.77 in 10.0 mi NW 12.7 mph - N/A   Overcast
2:53 AM 30.0 °F 21.7 °F 27.0 °F 88% 29.77 in 10.0 mi NNW 9.2 mph - N/A   Overcast
3:53 AM 30.0 °F 21.1 °F 26.1 °F 85% 29.75 in 10.0 mi NNW 10.4 mph - N/A   Overcast
4:53 AM 28.9 °F 18.6 °F 26.1 °F 89% 29.74 in 10.0 mi NNW 12.7 mph - N/A   Overcast
5:53 AM 30.0 °F 21.1 °F 26.1 °F 85% 29.77 in 10.0 mi NW 10.4 mph - N/A   Overcast
6:53 AM 30.0 °F 23.2 °F 26.1 °F 85% 29.78 in 10.0 mi NNW 6.9 mph - 0.00 in   Overcast
7:40 AM 30.2 °F 23.4 °F 26.6 °F 86% 29.74 in 4.0 mi NW 6.9 mph - 0.00 in Snow Light Snow
7:44 AM 30.2 °F 25.4 °F 26.6 °F 86% 29.74 in 1.8 mi NW 4.6 mph - 0.00 in Snow Light Snow
7:53 AM 30.0 °F 24.1 °F 27.0 °F 88% 29.81 in 0.5 mi NNW 5.8 mph - 0.00 in Fog , Snow Snow
8:04 AM 28.4 °F 21.2 °F 26.6 °F 93% 29.74 in 0.5 mi NW 6.9 mph - 0.00 in Fog , Snow Snow
8:24 AM 28.4 °F 20.4 °F 26.6 °F 93% 29.73 in 0.2 mi NNW 8.1 mph - 0.02 in Fog , Snow Snow
8:39 AM 28.4 °F 20.4 °F 26.6 °F 93% 29.73 in 0.5 mi NNW 8.1 mph - 0.03 in Fog , Snow Snow
8:53 AM 28.9 °F 19.8 °F 27.0 °F 92% 29.81 in 0.8 mi NNW 10.4 mph - 0.03 in Snow Light Snow
8:58 AM 30.2 °F 22.6 °F 26.6 °F 86% 29.73 in 1.0 mi NNW 8.1 mph - 0.00 in Snow Light Snow
9:10 AM 30.2 °F 24.3 °F 26.6 °F 86% 29.73 in 2.5 mi NW 5.8 mph - 0.00 in Snow Light Snow
9:20 AM 30.2 °F 23.4 °F 26.6 °F 86% 29.72 in 2.0 mi NNW 6.9 mph - 0.00 in Snow Light Snow
9:30 AM 30.2 °F 24.3 °F 26.6 °F 86% 29.72 in 5.0 mi NNW 5.8 mph - 0.00 in   Overcast
9:51 AM 30.2 °F 20.8 °F 26.6 °F 86% 29.72 in 3.0 mi NW 11.5 mph - 0.00 in Snow Light Snow
9:53 AM 30.9 °F 22.2 °F 27.0 °F 85% 29.79 in 2.5 mi NNW 10.4 mph - 0.00 in Snow Light Snow
10:03 AM 30.2 °F 21.3 °F 26.6 °F 86% 29.72 in 1.8 mi NW 10.4 mph - 0.00 in Snow Light Snow
10:10 AM 30.2 °F 21.9 °F 26.6 °F 86% 29.72 in 2.5 mi NW 9.2 mph - 0.00 in Snow Light Snow
10:17 AM 30.2 °F 21.3 °F 26.6 °F 86% 29.72 in 4.0 mi NW 10.4 mph - 0.00 in Snow Light Snow
10:37 AM 30.2 °F 21.9 °F 26.6 °F 86% 29.72 in 4.0 mi NW 9.2 mph - 0.00 in Snow Light Snow
10:53 AM 30.9 °F 20.7 °F 26.1 °F 82% 29.78 in 5.0 mi NNW 13.8 mph - 0.00 in   Haze
11:06 AM 30.2 °F 20.2 °F 26.6 °F 86% 29.71 in 5.0 mi NNW 12.7 mph - N/A   Haze
11:15 AM 30.2 °F 21.3 °F 24.8 °F 80% 29.71 in 10.0 mi NNW 10.4 mph - N/A   Overcast
11:41 AM 30.2 °F 20.8 °F 23.0 °F 75% 29.71 in 6.0 mi NW 11.5 mph - 0.00 in Snow Light Snow
11:53 AM 30.0 °F 19.1 °F 21.9 °F 72% 29.78 in 10.0 mi NNW 15.0 mph - 0.00 in   Overcast
12:04 PM 30.2 °F 19.8 °F 21.2 °F 69% 29.69 in 10.0 mi NNW 13.8 mph - N/A   Overcast
12:53 PM 30.9 °F 19.4 °F 24.1 °F 76% 29.73 in 10.0 mi NNW 17.3 mph 24.2 mph N/A   Mostly Cloudy
1:53 PM 32.0 °F 21.2 °F 24.1 °F 73% 29.74 in 10.0 mi North 16.1 mph - N/A   Mostly Cloudy
2:53 PM 30.9 °F 19.8 °F 23.0 °F 72% 29.78 in 10.0 mi NNW 16.1 mph - N/A   Overcast
3:11 PM 30.2 °F 18.9 °F 21.2 °F 69% 29.71 in 10.0 mi North 16.1 mph - N/A   Overcast
3:53 PM 30.0 °F 18.7 °F 21.9 °F 72% 29.79 in 10.0 mi NNW 16.1 mph 21.9 mph N/A   Mostly Cloudy
4:00 PM 30.2 °F 19.8 °F 21.2 °F 69% 29.72 in 10.0 mi NNW 13.8 mph - N/A   Scattered Clouds
4:53 PM 28.9 °F 17.3 °F 21.9 °F 75% 29.81 in 10.0 mi NNW 16.1 mph - N/A   Mostly Cloudy
5:53 PM 27.0 °F 16.1 °F 21.9 °F 81% 29.85 in 10.0 mi NNW 12.7 mph - N/A   Overcast
6:53 PM 26.1 °F 15.6 °F 21.9 °F 84% 29.88 in 10.0 mi NNW 11.5 mph - N/A   Clear
7:53 PM 26.1 °F 14.0 °F 21.0 °F 81% 29.90 in 10.0 mi NNW 15.0 mph 24.2 mph N/A   Clear
8:53 PM 25.0 °F 11.7 °F 18.0 °F 75% 29.92 in 10.0 mi NNW 17.3 mph - N/A   Clear
9:53 PM 25.0 °F 10.9 °F 18.0 °F 75% 29.93 in 10.0 mi NNW 19.6 mph - N/A   Clear
10:53 PM 24.1 °F 10.1 °F 18.0 °F 77% 29.94 in 10.0 mi NNW 18.4 mph - N/A   Clear
11:53 PM 24.1 °F 11.0 °F 19.0 °F 81% 29.95 in 10.0 mi NNW 16.1 mph - N/A   Clear